Location: Baia Mare
(47.6567°N, 23.5850°E)
Time: 06:56:20
(UTC+03:00)

ISS - Pass Details

Date: 18 May 2018
Orbit: 402 x 407 km, 51.6° (Epoch: 24 May)

Event Time Altitude Azimuth Distance (km) Brightness Sun altitude
Rises 04:22:10 0° 292° (WNW) 2,319 -0.2 -11.7°
Reaches altitude 10° 04:24:16 10° 296° (WNW) 1,458 -1.2 -11.4°
Maximum altitude 04:27:30 61° 18° (NNE) 461 -3.3 -11.0°
Drops below altitude 10° 04:30:44 10° 100° (E) 1,454 -0.5 -10.7°
Sets 04:32:50 0° 104° (ESE) 2,312 0.5 -10.4°
